Regional Weather Roundup
Issued by NWS Charleston, SC

Current Version | Previous Version | Graphics & Text | Print | Product List | Glossary On
Versions: 1 2 3 4 5 6 7 8 9 10 11 12 13 14 15 16 17 18 19 20 21 22 23 24 25 26 27 28 29 30 31 32 33 34 35 36 37 38 39 40 41 42 43 44 45 46 47 48 49 50
000 ASUS42 KCHS 180410 RWRCHS REGIONAL WEATHER ROUNDUP NATIONAL WEATHER SERVICE CHARLESTON SC 1200 AM EDT THU SEP 18 2014 NOTE: "FAIR" INDICATES FEW OR NO CLOUDS BELOW 12,000 FEET WITH NO SIGNIFICANT WEATHER AND/OR OBSTRUCTIONS TO VISIBILITY. NOT ALL STATIONS ARE QUALITY CONTROLLED BY THE NATIONAL WEATHER SERVICE. USE DATA WITH CAUTION...ESPECIALLY DEWPOINT OBSERVATIONS. SCZ027-030-031-034>040-042>050-180500- ...SOUTH CAROLINA... CITY SKY/WX TMP DP RH WIND PRES REMARKS N CHARLESTON PTCLDY 71 68 90 N5 29.92S WATERFRONT PRK N/A 75 N/A N/A N7 N/A FORT JOHNSON NOT AVBL MOUNT PLEASANT FAIR 72 72 100 CALM 29.92S FOG JOHNS ISLAND CLEAR 73 73 100 CALM 29.92S PINOPOLIS N/A 73 70 88 CALM 29.85R MONCKS CORNER N/A 68 68 100 CALM 29.93S FOG SUMMERVILLE MOCLDY 68 68 100 CALM 29.94S BEAUFORT MCAS MOCLDY 72 70 93 SW6 29.93S BEAUFORT ARPT FAIR 72 72 100 CALM 29.91F HILTON HEAD IS LGT RAIN 75 75 100 N6 29.93R GEORGETOWN NOT AVBL WALTERBORO CLOUDY 70 N/A N/A CALM 29.94S ORANGEBURG HVY RAIN 70 67 90 CALM 29.94R FOG BARNWELL FAIR 70 70 100 E5 29.94F AIKEN MOCLDY 68 68 100 CALM 29.98F MANNING FAIR 70 N/A N/A N5 29.93S KINGSTREE NOT AVBL COLUMBIA PTCLDY 69 65 86 W3 29.94R SUMTER MOCLDY 71 65 84 NW5 29.92S FLORENCE PTCLDY 71 68 90 N3 29.92S MYRTLE BEACH MOCLDY 73 70 88 NW3 29.92R N MYRTLE BEACH MOCLDY 72 67 84 NE6 29.92R $$ GAZ063-065-086>088-099>101-113>116-118-119-134-136>141-150-180500- ...GEORGIA... CITY SKY/WX TMP DP RH WIND PRES REMARKS SAVANNAH ARPT MOCLDY 73 70 88 SE5 29.93F HUNTER AAF TSTM 75 75 100 VRB1 29.90S FORT STEWART MOCLDY 74 72 95 CALM 29.90S STATESBORO NOT AVBL SYLVANIA PTCLDY 71 71 98 CALM 29.93S FOG CLAXTON FAIR 72 72 100 CALM 29.92S THOMSON CLEAR 71 71 100 CALM 29.99S AUGUSTA-BUSH CLEAR 68 68 100 CALM 29.93S FOG AUGUSTA-DANIEL CLEAR 71 69 93 CALM 29.95S SWAINSBORO FAIR 73 73 100 E3 29.93S VIDALIA CLEAR 73 72 94 NE3 29.92S ALMA CLEAR 72 68 87 CALM 29.91S WAYCROSS MOCLDY 74 73 93 CALM 29.91F JESUP FAIR 73 73 100 CALM 29.92S BRUNSWICK CLOUDY 72 68 88 NW16G33 29.94R THUNDER SAINT SIMONS CLOUDY 80 72 76 W14 29.93R THUNDER $$ SCZ027-028-034-036>038-045-046-048>050-GAZ119-141-180500- ...LAKE AND SUPPLEMENTAL COASTAL OBSERVATIONS... STATION/POSITION TIME TEMP WIND PRES WAVE SWELL AIR SEA DIR/SP/G HT/PER HT/PER/DIR (UTC) (F) (DEG/KT/KT) (MB) (FT/S) (FT/S/D) UPR LAKE MARION NOT AVBL WINYAH BAY 0300 74 300/ 5 1012.0F LAKE MURRAY 0300 71 20/ 1/ 4 1013.5S ACE BASIN NERRS 0300 73 CALM 1013.0S FORT PULASKI 0400 78 130/ 2/ 3 1012.8F SAPELO ISLAND 0300 79 130/ 3 1013.0S $$ ANZ835-935-AMZ111-154-330-350-352-354-374-450-454-472-180500- ...C-MAN AND BUOY OBSERVATIONS... STATION/POSITION TIME TEMP WIND PRES WAVE SWELL AIR SEA DIR/SP/G HT/PER HT/PER/DIR (UTC) (F) (DEG/KT/KT) (MB) (FT/S) (FT/S/D) FOLLY BEACH CMAN 0300 75 360/ 8/ 9 1013.5R BUOY 41004 0400 81 83 20/ 4/ 6 1012.5R 4/13 3/13 BUOY 41008 0400 82 84 140/ 8/ 8 1012.7S 3/13 2/ 80/13 5E ST. MARYS GA 0400 84 N/A 3/14 3/100/14 FRYING PAN BUOY NOT AVBL BUOY 41025 0400 74 30/ 14/ 17 1012.5F 6/14 5/ 90/14 CAPE LOOKOUT NC 0300 76 40/ 16/ 18 1012.8F BUOY 41002 0251 78 82 360/ 6/ 10 1011.5 6/11 5/ 80/11 BUOY 41010 0400 81 85 340/ 8/ 10 1012.3F 5/12 5/ 60/12 BUOY 41012 NOT AVBL ST AUGUSTINE FL 0400 76 250/ 4/ 5 1013.8F CAPERS NEARSHORE 0300 76 360/ 8/ 10 N/A FRIPP NEARSHORE NOT AVBL $$

USA.gov is the U.S. government's official web portal to all federal, state and local government web resources and services.